New York JFK, NY

4:51 PM EDT on June 24, 2017 (GMT -0400)
Kennedy International

Weather History for KJFK - May, 2014

Change the Weather History Date:

Friday, May 2, 2014

  Actual Average Record
Temperature  
Mean Temperature 61 °F 56 °F  
Max Temperature 69 °F 64 °F 82 °F (1992)
Min Temperature 52 °F 49 °F 39 °F (1964)
Degree Days  
Heating Degree Days 4 9  
Month to date heating degree days 7 18  
Since 1 July heating degree days 5006 4669  
Cooling Degree Days 0 0  
Month to date cooling degree days 0 0  
Year to date cooling degree days 0 3  
Growing Degree Days 12 (Base 50)    
Moisture  
Dew Point 42 °F    
Average Humidity 51    
Maximum Humidity 72    
Minimum Humidity 30    
Precipitation  
Precipitation 0.01 in 0.11 in 1.65 in (1989)
Month to date precipitation 0.25 0.22  
Year to date precipitation 19.09 13.62  
Snow  
Snow 0.00 in 0.00 in - ()
Month to date snowfall 0.0 0.0  
Since 1 July snowfall 45.6 23.8  
Snow Depth 0.00 in    
Sea Level Pressure  
Sea Level Pressure 29.78 in    
Wind  
Wind Speed 11 mph (West)    
Max Wind Speed 24 mph    
Max Gust Speed 28 mph    
Visibility 10 miles    
Events Rain    
T = Trace of Precipitation, MM = Missing Value Source: NWS Daily Summary

Daily Weather History Graph

Daily Weather History Graph

Search for Another Location

Airport or City:

Trip Planner

Search our weather history database for the weather conditions in past years. The results will help you decide how hot, cold, wet, or windy it might be!

Date:

Astronomy

May. 02, 2014 Rise Set
Actual Time 5:52 AM EDT 7:52 PM EDT
Civil Twilight 5:22 AM EDT 8:22 PM EDT
Nautical Twilight 4:46 AM EDT 8:58 PM EDT
Astronomical Twilight 4:07 AM EDT 9:38 PM EDT
Moon 8:27 AM EDT (5/2) 11:12 PM EDT (5/2)
Length of Visible Light 14h 59m
Length of Day
13h 59m
Waxing Crescent, 12% of the Moon is Illuminated
May 2
Waxing Crescent
May 6
First Quarter
May 14
Full
May 21
Last Quarter
May 28
New

Hourly Weather History & Observations

Time (EDT) Temp. Dew Point Humidity Pressure Visibility Wind Dir Wind Speed Gust Speed Precip Events Conditions
12:51 AM 64.0 °F 50.0 °F 60% 29.72 in 10.0 mi WNW 11.5 mph - N/A   Mostly Cloudy
1:51 AM 62.1 °F 50.0 °F 65% 29.73 in 10.0 mi NNW 12.7 mph - N/A   Overcast
2:51 AM 61.0 °F 52.0 °F 72% 29.73 in 10.0 mi NNE 6.9 mph - 0.00 in Rain Light Rain
3:51 AM 57.9 °F 50.0 °F 75% 29.73 in 10.0 mi NNE 11.5 mph - 0.00 in   Mostly Cloudy
4:51 AM 55.9 °F 46.9 °F 72% 29.77 in 8.0 mi North 6.9 mph - 0.00 in Rain Light Rain
5:51 AM 55.9 °F 46.9 °F 72% 29.77 in 10.0 mi NNE 4.6 mph - 0.01 in   Overcast
6:51 AM 55.9 °F 46.9 °F 72% 29.78 in 10.0 mi Calm Calm - N/A   Mostly Cloudy
7:51 AM 57.9 °F 43.0 °F 58% 29.78 in 10.0 mi NNE 3.5 mph - N/A   Mostly Cloudy
8:51 AM 59.0 °F 41.0 °F 51% 29.79 in 10.0 mi South 4.6 mph - N/A   Mostly Cloudy
9:51 AM 60.1 °F 44.1 °F 55% 29.80 in 10.0 mi South 8.1 mph - N/A   Mostly Cloudy
10:51 AM 61.0 °F 46.9 °F 60% 29.79 in 10.0 mi South 12.7 mph - N/A   Scattered Clouds
11:51 AM 61.0 °F 46.9 °F 60% 29.78 in 10.0 mi SSW 13.8 mph - N/A   Mostly Cloudy
12:51 PM 61.0 °F 45.0 °F 56% 29.77 in 10.0 mi South 13.8 mph - N/A   Mostly Cloudy
1:13 PM 66.2 °F 39.2 °F 37% 29.77 in 10.0 mi WSW 12.7 mph 21.9 mph N/A   Mostly Cloudy
1:51 PM 64.0 °F 37.0 °F 37% 29.77 in 10.0 mi WSW 18.4 mph - N/A   Mostly Cloudy
2:51 PM 64.9 °F 37.9 °F 37% 29.76 in 10.0 mi SW 17.3 mph - N/A   Mostly Cloudy
3:51 PM 66.9 °F 39.0 °F 36% 29.75 in 10.0 mi SW 18.4 mph - N/A   Mostly Cloudy
4:51 PM 64.9 °F 39.9 °F 40% 29.75 in 10.0 mi SW 19.6 mph - N/A   Mostly Cloudy
5:51 PM 66.0 °F 39.0 °F 37% 29.77 in 10.0 mi West 16.1 mph 27.6 mph N/A   Scattered Clouds
6:51 PM 66.0 °F 37.0 °F 34% 29.79 in 10.0 mi West 13.8 mph - N/A   Scattered Clouds
7:51 PM 64.0 °F 32.0 °F 30% 29.81 in 10.0 mi West 13.8 mph 23.0 mph N/A   Scattered Clouds
8:51 PM 63.0 °F 34.0 °F 34% 29.84 in 10.0 mi West 15.0 mph 21.9 mph N/A   Scattered Clouds
9:51 PM 62.1 °F 34.0 °F 35% 29.86 in 10.0 mi West 15.0 mph 19.6 mph N/A   Scattered Clouds
10:51 PM 61.0 °F 33.1 °F 35% 29.86 in 10.0 mi West 9.2 mph - N/A   Scattered Clouds
11:51 PM 57.9 °F 37.0 °F 46% 29.86 in 10.0 mi West 9.2 mph - N/A   Scattered Clouds